User: anonymous   Login
Location: Unspecified
(0.0000°N, 0.0000°E)
Time: 20:14:54
(UTC+00:00)
Language:

Tele-X - Orbit

View from above orbital plane
View from above orbital plane
View from above satellite
View from above satellite

Ground track
Ground track

The orbit data is extracted from the following two-line orbital elements,

1 19919U 89027A   18321.83243619 -.00000045  00000-0  00000+0 0  9995
2 19919  15.1111  15.1242 0004858 217.0668 147.1916  0.99180323 89811
Epoch (UTC): 17 November 2018 19:58:42
Eccentricity: 0.0004858
inclination: 15.1111°
perigee height: 36074 km
apogee height: 36115 km
right ascension of ascending node: 15.1242°
argument of perigee: 217.0668°
revolutions per day: 0.99180323
mean anomaly at epoch: 147.1916°
orbit number at epoch: 8981

The dashed part of the orbit path shows where the satellite is in the earth's shadow,  

DLR